User: anonymous   Login
Location: Baumgarten
(49.0970°N, 12.7493°E)
Time: 22:16:07
(UTC+00:00)
Language:

NOSS 3-4 (A) - Orbit

View from above orbital plane
View from above orbital plane
View from above satellite
View from above satellite

Ground track
Ground track

The orbit data is extracted from the following two-line orbital elements,

1 31701U 07027A   20262.03637815 0.00000000  00000-0  00000-0 0    06
2 31701  63.4025 290.7550 0293746  19.4751 340.5249 13.40808415    01
Epoch (UTC): 18 September 2020 00:52:23
Eccentricity: 0.0293746
inclination: 63.4025°
perigee height: 886 km
apogee height: 1326 km
right ascension of ascending node: 290.7550°
argument of perigee: 19.4751°
revolutions per day: 13.40808415
mean anomaly at epoch: 340.5249°
orbit number at epoch: 0

The dashed part of the orbit path shows where the satellite is in the earth's shadow,  

DLR